Location: Asheville, NC
(35.6000°N, 82.5500°W)
Time: 06:06:37
(UTC-04:00)

CUBEBUG 2 - Pass Details

Date: 10 January 2018
Orbit: 585 x 700 km, 97.6° (Epoch: 22 July)

Event Time Altitude Azimuth Distance (km) Brightness Sun altitude
Rises 19:43:15 0° 191° (SSW) 2,806 ? -25.4°
Reaches altitude 10° 19:45:36 10° 203° (SSW) 1,920 ? -25.9°
Maximum altitude 19:49:13 29° 264° (W) 1,123 ? -26.6°
Drops below altitude 10° 19:52:57 10° 324° (NW) 1,980 ? -27.3°
Sets 19:55:26 0° 336° (NNW) 2,910 ? -27.8°
